DW5078 Weather Reports


Display with metric or nautical units.
time (UTC)temp
F
wind
direction
speed
MPH
gust
MPH
rain 1hr
in
rain 24hr
in
rain mn
in
humidity
%
barometer
mb
20260507040105 58 14 0.0 3.0 0.00 0.00 0.00 81 1013.9
20260507035105 58 14 0.0 2.0 0.00 0.00 0.00 80 1013.8
20260507034105 58 13 0.0 4.0 0.00 0.00 0.00 80 1013.8
20260507033105 59 13 0.0 2.0 0.00 0.00 0.00 80 1013.7
20260507032105 59 13 1.0 3.0 0.00 0.00 0.00 80 1013.7
20260507031104 59 13 0.0 2.0 0.00 0.00 0.00 80 1013.6
20260507030104 59 13 0.0 3.0 0.00 0.00 0.00 81 1013.3
20260507025104 59 13 1.0 3.0 0.00 0.00 0.00 84 1013.1
20260507024105 59 14 1.0 1.0 0.00 0.00 0.00 84 1013.0
20260507023104 59 13 2.0 2.0 0.00 0.00 0.00 84 1012.8
20260507022104 59 13 0.0 2.0 0.00 0.00 0.00 84 1012.7
20260507021104 59 13 0.0 2.0 0.00 0.00 0.00 84 1012.4
20260507020104 59 14 0.0 2.0 0.00 0.00 0.00 84 1012.3
20260507015104 59 13 0.0 4.0 0.00 0.00 0.00 84 1012.0
20260507014104 59 14 0.0 1.0 0.00 0.00 0.00 84 1011.8
20260507013104 60 13 0.0 4.0 0.00 0.00 0.00 83 1011.6
20260507012104 60 13 1.0 4.0 0.00 0.00 0.00 83 1011.4
20260507010104 60 13 0.0 2.0 0.00 0.00 0.00 82 1011.2
20260507005104 60 14 0.0 4.0 0.00 0.00 0.00 82 1011.0
20260507004104 60 13 0.0 3.0 0.00 0.00 0.00 81 1011.0
20260507003104 61 13 0.0 1.0 0.00 0.00 0.00 81 1010.8
20260507002104 61 13 1.0 2.0 0.00 0.00 0.00 80 1010.6
20260507001104 61 9 0.0 2.0 0.00 0.00 0.00 80 1010.4
20260507000104 61 9 0.0 3.0 0.00 0.00 0.00 80 1010.4
20260506235104 61 9 0.0 5.0 0.00 0.00 0.00 80 1010.3
20260506234104 62 9 0.0 3.0 0.00 0.00 0.00 79 1010.3
20260506233104 62 10 0.0 4.0 0.00 0.00 0.00 78 1010.2
20260506232104 62 9 0.0 3.0 0.00 0.00 0.00 79 1009.9
20260506231104 62 10 1.0 3.0 0.00 0.00 0.00 79 1009.8
20260506230104 62 9 0.0 2.0 0.00 0.00 0.00 78 1010.0
20260506225104 62 9 0.0 2.0 0.00 0.00 0.00 78 1009.9
20260506224104 62 9 0.0 3.0 0.00 0.00 0.00 78 1009.9
20260506223104 62 10 0.0 2.0 0.00 0.00 0.00 78 1009.8
20260506222104 62 10 0.0 1.0 0.00 0.00 0.00 78 1009.8
20260506221104 62 10 0.0 1.0 0.00 0.00 0.00 77 1009.8
20260506220104 63 9 0.0 3.0 0.00 0.00 0.00 76 1009.5
20260506215104 63 9 1.0 2.0 0.00 0.00 0.00 76 1009.4
20260506214104 63 9 0.0 3.0 0.00 0.00 0.00 77 1009.5
20260506213104 63 9 1.0 3.0 0.00 0.00 0.00 76 1009.8
20260506212104 63 10 1.0 2.0 0.00 0.00 0.00 76 1009.8
20260506211104 63 10 0.0 1.0 0.00 0.00 0.00 77 1009.7
20260506210104 62 9 0.0 6.0 0.00 0.00 0.00 76 1009.8
20260506205104 62 9 0.0 2.0 0.00 0.00 0.00 77 1009.7
20260506204104 62 9 2.0 2.0 0.00 0.00 0.00 77 1009.8
20260506203104 62 10 0.0 3.0 0.00 0.00 0.00 77 1010.1
20260506202104 62 10 0.0 2.0 0.00 0.00 0.00 77 1010.1
20260506201104 61 9 0.0 4.0 0.00 0.00 0.00 79 1010.0
20260506200104 61 10 0.0 1.0 0.00 0.00 0.00 79 1010.0
20260506195104 60 9 0.0 1.0 0.00 0.00 0.00 81 1010.6
20260506194104 59 9 0.0 1.0 0.00 0.00 0.00 81 1010.7
20260506193104 59 9 0.0 1.0 0.00 0.00 0.00 81 1010.8
20260506192104 59 9 0.0 1.0 0.00 0.00 0.00 82 1010.6
20260506191104 58 9 0.0 1.0 0.00 0.00 0.00 81 1010.7
20260506190104 59 9 0.0 2.0 0.00 0.00 0.00 81 1010.8
20260506185104 59 9 0.0 2.0 0.00 0.00 0.00 82 1010.4
20260506184104 59 9 0.0 2.0 0.00 0.00 0.00 82 1009.7
20260506183103 59 9 1.0 1.0 0.00 0.00 0.00 83 1009.3
20260506182104 59 10 0.0 3.0 0.00 0.00 0.00 84 1009.2
20260506181103 58 10 0.0 2.0 0.00 0.00 0.00 88 1009.1
20260506180103 56 9 0.0 2.0 0.00 0.00 0.00 89 1009.4
20260506175103 55 9 1.0 3.0 0.00 0.00 0.00 89 1009.7
20260506174103 55 9 0.0 2.0 0.00 0.00 0.00 90 1009.9
20260506173103 54 9 0.0 4.0 0.00 0.00 0.00 91 1009.4
20260506172103 54 9 0.0 0.0 0.00 0.00 0.00 91 1009.6
20260506171103 54 9 0.0 0.0 0.00 0.00 0.00 91 1010.0
20260506170103 54 9 0.0 0.0 0.00 0.00 0.00 91 1009.9
20260506165103 54 10 0.0 0.0 0.00 0.00 0.00 92 1010.3
20260506164103 54 10 0.0 0.0 0.00 0.00 0.00 92 1010.8
20260506163103 54 9 0.0 2.0 0.00 0.00 0.00 91 1011.1
20260506162103 54 9 0.0 2.0 0.00 0.00 0.00 92 1011.1
20260506161103 54 9 0.0 1.0 0.00 0.00 0.00 93 1010.2
20260506160103 54 9 0.0 0.0 0.00 0.00 0.00 92 1009.1
20260506155103 54 9 0.0 0.0 0.00 0.00 0.00 91 1009.8
20260506154103 54 9 0.0 0.0 0.00 0.00 0.00 88 1010.0
20260506153103 54 9 0.0 0.0 0.00 0.00 0.00 86 1012.2
20260506152103 55 9 0.0 0.0 0.00 0.00 0.00 84 1011.5
20260506151103 55 9 0.0 0.0 0.00 0.00 0.00 83 1010.7
20260506145103 55 9 0.0 1.0 0.00 0.00 0.00 84 1010.3
20260506144103 55 9 0.0 0.0 0.00 0.00 0.00 84 1010.2
20260506143101 54 9 0.0 0.0 0.00 0.00 0.00 84 1010.5
20260506142101 54 9 0.0 0.0 0.00 0.00 0.00 86 1010.1
20260506141103 54 9 0.0 0.0 0.00 0.00 0.00 86 1009.7
20260506135101 54 10 0.0 0.0 0.00 0.00 0.00 87 1009.5